Regional Weather Roundup
Issued by NWS

Home | Current Version | Previous Version | Text Only | Print | Product List | Glossary On
Versions: 1 2 3 4 5 6 7 8 9 10 11 12 13 14 15 16 17 18 19 20 21 22 23 24 25 26 27 28 29 30 31 32 33 34 35 36 37 38 39 40 41 42 43 44 45 46 47 48 49 50
000
ASUS43 KDTX 271501
RWRMI
MICHIGAN HOURLY REGIONAL WEATHER ROUNDUP
NATIONAL WEATHER SERVICE DETROIT/PONTIAC MI
1000 AM EST THU NOV 27 2014

NOTE: "FAIR" INDICATES FEW OR NO CLOUDS BELOW 12,000 FEET WITH NO
SIGNIFICANT WEATHER AND/OR OBSTRUCTION TO VISIBILITY.

MIZ047>049-052>055-059>063-066>070-074>076-081>083-271600-
SOUTHEAST LOWER MICHIGAN

CITY           SKY/WX    TMP DP  RH WIND       PRES   REMARKS
ADRIAN         CLOUDY    30  21  69 NW9       30.19R WCI  22
ALMA           CLOUDY    29  25  84 NW9       30.17R WCI  21
ANN ARBOR      CLOUDY    30  21  69 NW8       30.16R WCI  22
BAD AXE        LGT SNOW  30  27  88 NW10G16   30.11R WCI  21
CARO           CLOUDY    28  25  86 W10       30.12S WCI  19
DETROIT CITY   CLOUDY    32  21  64 W9        30.16R WCI  24
DETROIT        CLOUDY    30  21  69 W5        30.17R WCI  25
FLINT          CLOUDY    31  23  72 NW14      30.15R WCI  21
GROSSE ILE     CLOUDY    30  21  69 NW6       30.16R WCI  24
HILLSDALE      PTSUNNY   30  23  75 W6        30.16S WCI  24
HOWELL         CLOUDY    29  25  84 W8        30.15R FOG     WCI  21

CITY           SKY/WX    TMP DP  RH WIND       PRES   REMARKS
JACKSON        PTSUNNY   29  22  75 NW9       30.16S WCI  20
LAMBERTVILLE   CLOUDY    32  23  69 W7        30.19R WCI  26
LANSING        LGT SNOW  28  23  81 NW6       30.17R WCI  22
LAPEER         CLOUDY    30  24  78 NW10      30.13R WCI  21
MASON          CLOUDY    29  25  84 NW8       30.16S WCI  21
MONROE         CLOUDY    30  23  74 CALM      30.16R
MT. CLEMENS    MIX PCPN  31  24  75 NW10      30.12R WCI  22
PONTIAC        CLOUDY    29  22  75 W9        30.13R WCI  20
PORT HOPE        N/A     30  27  88 NW15G29   30.06S WCI  19
PORT HURON     CLOUDY    30  25  80 W8        30.12S WCI  23
TRI CITIES     CLOUDY    30  23  75 W8        30.16R WCI  22
TROY           CLOUDY    32  23  69 W8        30.16R WCI  25
SAGINAW HB     PTSUNNY   32  27  80 W9        30.14S HAZE    WCI  24
$$
MIZ043>046-050>051-056>058-064>065-071>073-077>080-271600-
SOUTHWEST LOWER MICHIGAN

CITY           SKY/WX    TMP DP  RH WIND       PRES   REMARKS
BATTLE CREEK   LGT SNOW  30  23  75 W7        30.19R WCI  23
BENTON HARBOR  FLURRIES  31  25  78 NW8       30.23R WCI  23
BIG RAPIDS     CLOUDY    28  25  91 N6        30.17R WCI  21
COLDWATER      CLOUDY    31  25  79 W10       30.19R WCI  22
FREMONT        CLOUDY    28  24  87 N13       30.19R WCI  17
HOLLAND        SNOW      33  28  81 W15G21    30.19S VSB 1/2 WCI  23
GRAND RAPIDS   LGT SNOW  28  25  88 SW6       30.18S FOG     WCI  22
IONIA          CLOUDY    29  25  83 W6        30.16S WCI  23
KALAMAZOO      LGT SNOW  29  26  89 W6        30.20R VSB 1   WCI  23
LUDINGTON      SNOW      27  25  94 N9        30.23R VSB 1/2 WCI  18
MARSHALL       CLOUDY    29  23  80 W7        30.18R WCI  22
MOUNT PLEASANT CLOUDY    28  24  84 NW7       30.16R WCI  21
MUSKEGON       SNOW      30  24  78 N9        30.21R VSB 1/2 WCI  22
SOUTH HAVEN    LGT SNOW  32  28  86 NW9       30.22R WCI  24
$$
MIZ016>042-271600-
NORTHERN LOWER MICHIGAN

CITY           SKY/WX    TMP DP  RH WIND       PRES   REMARKS
ALPENA         LGT SNOW  25  23  92 NW17G25   30.14R VSB 3/4 WCI  12
BEAVER ISLAND  PTSUNNY   21  12  66 N9G21     30.23R WCI  11
BELLAIRE       CLOUDY    25  18  75 NW5       30.22R WCI  19
CADILLAC       LGT SNOW  23  20  89 N8        30.15R WCI  14
CHARLEVOIX     CLOUDY    23  15  73 NW13G22   30.25R WCI  11
FRANKFORT      LGT SNOW  24  19  81 N14G20    30.24R WCI  12
GAYLORD        LGT SNOW  20  14  77 VRB5      30.15R WCI  13
GRAYLING       FLURRIES  23  18  81 N10G18    30.16R WCI  12
HARBOR SPRINGS LGT SNOW  22  15  75 NW8       30.20R WCI  12
HOUGHTON LAKE  CLOUDY    24  19  81 NW13      30.15R WCI  12
MANISTEE       CLOUDY    25  21  86 N8        30.24R WCI  16
OSCODA         LGT SNOW  28  25  87 NW12      30.11R WCI  18
PELLSTON       CLOUDY    21  13  71 N12G23    30.21R WCI   9
ROGERS CITY    LGT SNOW  24  22  91 NW12G22   30.17R WCI  13
TRAVERSE CITY  LGT SNOW  26  19  74 N10G18    30.21R WCI  16
$$
MIZ007>008-015-271600-
EASTERN UPPER MICHIGAN

CITY           SKY/WX    TMP DP  RH WIND       PRES   REMARKS
KINROSS        CLOUDY    19  18  93 W13G20    30.16R WCI   7
MACKINAC ISLAN CLOUDY    21  13  71 NW12G22   30.19R WCI   9
NEWBERRY       MOSUNNY   16  10  77 NW15G21   30.20R WCI   1
S. S. MARIE    LGT SNOW  20  12  71 NW13G22   30.18R WCI   7
MUNISING         N/A     21  10  62 NW17G30   30.27R WCI   7
$$
MIZ004>006-011>014-085-271600-
CENTRAL UPPER MICHIGAN

CITY           SKY/WX    TMP DP  RH WIND       PRES   REMARKS
MANISTIQUE     MOSUNNY   17  12  80 NW13      30.25R WCI   4
ESCANABA       SUNNY     12   1  62 NW14G22   30.29R WCI  -3
MENOMINEE      MOSUNNY   12   1  62 N12G20    30.32R WCI  -2
$$
MIZ001>003-009>011-084-271600-
WESTERN UPPER MICHIGAN

CITY           SKY/WX    TMP DP  RH WIND       PRES   REMARKS
IRON MOUNTAIN  MOSUNNY    8   1  73 NW10      30.29S WCI  -6
HOUGHTON       LGT SNOW   8   0  69 N12       30.31R WCI  -7
COPPER HARBOR    N/A     14   7  73 N18G28    30.33R WCI  -3
IRONWOOD       PTSUNNY    9   3  78 NW10      30.33R WCI  -6
$$

ABBREVIATIONS USED IN REMARKS
   TC - TEMPERATURE IN CELSIUS
  WCI - WIND CHILL INDEX
   HX - HEAT INDEX
  VSB - VISIBILITY




USA.gov is the U.S. government's official web portal to all federal, state and local government web resources and services.